This demonstration page uses our WeatherBlox Daily Observations layout. Learn more.

Hourly Observations for September 3, 2018

Temp ( °F °C ) Dew Point ( °F °C ) Humidity (%) Winds ( mph kmh ) Pressure ( in mb ) Visibility ( mi km ) Precip ( " mm )
12:15 am 00:15 Cloudy 68 20 68 20 100 100 ESE 9 15 30 1016 10 16.09344 0 0
12:35 am 00:35 Cloudy with Nearby Thunderstorms 68 20 68 19.8 99 99 ESE 8 13 30 1016 10 16.09344 0 0
12:55 am 00:55 Cloudy 67 19.7 67 19.5 99 99 ESE 8 13 30 1016 10 16.09344 0 0
1:15 am 01:15 Cloudy 67 19.5 67 19.3 99 99 E 5 7 29.97 1015 10 16.09344 0 0
1:35 am 01:35 Cloudy 67 19.3 66 18.8 97 97 ESE 5 7 29.97 1015 10 16.09344 0 0
1:55 am 01:55 Mostly Cloudy 66 18.9 65 18.6 98 98 SE 6 9 29.97 1015 10 16.09344 0 0
2:15 am 02:15 Cloudy 66 19 66 18.7 98 98 SE 7 11 29.97 1015 10 16.09344 0 0
2:35 am 02:35 Cloudy 65 18.6 65 18.5 99 99 SE 8 13 29.97 1015 10 16.09344 0 0
2:55 am 02:55 Mostly Cloudy 65 18.6 65 18.5 99 99 SE 5 7 29.97 1015 10 16.09344 0 0
3:15 am 03:15 Cloudy 65 18.6 65 18.5 99 99 SE 6 9 29.97 1015 10 16.09344 0 0
3:35 am 03:35 Cloudy 66 18.7 65 18.6 99 99 SE 5 7 30 1016 10 16.09344 0 0
3:55 am 03:55 Cloudy 66 18.7 66 18.7 100 100 SE 5 7 30 1016 10 16.09344 0 0
4:15 am 04:15 Cloudy 66 18.7 66 18.7 100 100 SSE 6 9 30 1016 10 16.09344 0 0
4:35 am 04:35 Cloudy 66 18.7 66 18.7 100 100 SE 6 9 29.97 1015 10 16.09344 0 0
4:55 am 04:55 Cloudy 66 18.8 66 18.8 100 100 SE 5 7 30 1016 10 16.09344 0 0
5:15 am 05:15 Cloudy 66 19 66 19 100 100 SE 5 7 30 1016 10 16.09344 0 0
5:35 am 05:35 Cloudy 66 19 66 19 100 100 SE 5 7 29.97 1015 10 16.09344 0 0
5:55 am 05:55 Cloudy 66 19 66 19 100 100 SSE 7 11 29.97 1015 10 16.09344 0 0
6:15 am 06:15 Cloudy 66 19 66 19 100 100 SSE 6 9 30 1016 10 16.09344 0 0
6:35 am 06:35 Cloudy 66 19 66 19 100 100 SSE 7 11 30 1016 10 16.09344 0 0
6:55 am 06:55 Cloudy with Light Rain 66 19 66 19 100 100 Calm 30 1016 10 16.09344 0 0
7:15 am 07:15 Cloudy 66 18.8 66 18.8 100 100 Calm 30 1016 10 16.09344 0 0
7:35 am 07:35 Cloudy 66 19 66 19 100 100 SSE 6 9 30 1016 10 16.09344 0 0
7:55 am 07:55 Cloudy 66 19.1 66 19.1 100 100 S 6 9 30 1016 10 16.09344 0 0
8:15 am 08:15 Cloudy 67 19.2 67 19.2 100 100 S 5 7 30 1016 10 16.09344 0 0
8:35 am 08:35 Cloudy 67 19.3 67 19.3 100 100 S 3 6 30.03 1017 10 16.09344 0 0
8:55 am 08:55 Cloudy 67 19.5 67 19.3 99 99 S 6 9 30.03 1017 10 16.09344 0 0
9:15 am 09:15 Cloudy with Heavy Rain 67 19.3 67 19.3 100 100 S 7 11 30.03 1017 1.25 2.01168 0.21 5.334
9:35 am 09:35 Cloudy with Light Rain 67 19.3 67 19.3 100 100 S 5 7 30.03 1017 5 8.04672 0.29 7.366
9:55 am 09:55 Cloudy 68 20 68 20 100 100 S 6 9 30.03 1017 10 16.09344 0.29 7.366
10:15 am 10:15 Cloudy 69 20.5 68 20.1 98 98 SSE 6 9 30 1016 10 16.09344 0 0
10:35 am 10:35 Cloudy 69 20.6 68 20.1 97 97 SSE 6 9 30 1016 10 16.09344 0 0
10:55 am 10:55 Cloudy 68 20.2 68 19.8 98 98 SSE 7 11 30.03 1017 10 16.09344 0 0
11:15 am 11:15 Cloudy 68 20.2 68 19.8 98 98 S 7 11 30.03 1017 10 16.09344 0 0
11:35 am 11:35 Cloudy 69 20.5 68 20 97 97 SSE 5 7 30 1016 10 16.09344 0 0
11:55 am 11:55 Cloudy 70 21.2 69 20.4 95 95 SSE 9 15 30 1016 10 16.09344 0 0
12:15 pm 12:15 Cloudy 71 21.4 68 20 92 92 SSE 9 15 30 1016 10 16.09344 0 0
12:35 pm 12:35 Mostly Cloudy 71 21.7 67 19.6 88 88 SSE 10 17 30 1016 10 16.09344 0 0
12:55 pm 12:55 Cloudy 71 21.8 67 19.2 85 85 S 10 17 30 1016 10 16.09344 0 0
1:15 pm 13:15 Cloudy 71 21.7 67 19.2 86 86 SSE 9 15 30 1016 10 16.09344 0 0
1:35 pm 13:35 Cloudy 72 22.1 67 19.6 86 86 SSE 8 13 29.97 1015 10 16.09344 0 0
1:55 pm 13:55 Cloudy 73 22.5 68 19.9 85 85 SSE 10 17 29.97 1015 10 16.09344 0 0
2:15 pm 14:15 Cloudy 72 22.4 67 19.6 84 84 SSE 12 19 29.97 1015 10 16.09344 0 0
2:35 pm 14:35 Cloudy 70 21 69 20.5 97 97 SSE 7 11 29.97 1015 10 16.09344 0.02 0.508
2:55 pm 14:55 Cloudy 71 21.5 69 20.4 93 93 SE 12 19 29.97 1015 10 16.09344 0.02 0.508
3:15 pm 15:15 Cloudy 70 21.3 68 20 92 92 SSE 12 19 29.97 1015 10 16.09344 0 0
3:35 pm 15:35 Cloudy 71 21.5 69 20.3 93 93 SSE 8 13 29.97 1015 10 16.09344 0 0
3:55 pm 15:55 Cloudy 72 22 68 20.2 90 90 SSE 8 13 29.97 1015 10 16.09344 0 0
4:15 pm 16:15 Cloudy with Light Rain 71 21.5 68 20 91 91 SSE 8 13 29.97 1015 10 16.09344 0 0
4:35 pm 16:35 Cloudy 71 21.5 68 20.1 92 92 SE 6 9 29.94 1014 10 16.09344 0 0
4:55 pm 16:55 Cloudy 71 21.5 68 20.1 92 92 SE 9 15 29.94 1014 10 16.09344 0 0
5:15 pm 17:15 Cloudy 71 21.7 68 20.1 91 91 SSE 7 11 29.94 1014 10 16.09344 0 0
5:35 pm 17:35 Cloudy 71 21.6 68 20 91 91 SSE 6 9 29.94 1014 10 16.09344 0 0
5:55 pm 17:55 Cloudy 71 21.6 68 20.1 91 91 SSE 6 9 29.94 1014 10 16.09344 0 0
6:15 pm 18:15 Cloudy 71 21.7 68 20.2 91 91 SSE 5 7 29.97 1015 10 16.09344 0 0
6:35 pm 18:35 Cloudy 71 21.5 68 20 91 91 SSE 5 7 29.97 1015 10 16.09344 0 0
6:55 pm 18:55 Cloudy with Heavy Rain 70 21.1 68 20.1 94 94 Calm 29.97 1015 2.5 4.02336 0.09 2.286
7:15 pm 19:15 Cloudy with Light Rain 69 20.8 69 20.5 98 98 SSE 5 7 29.97 1015 7 11.265408 0.02 0.508
7:35 pm 19:35 Mostly Cloudy with Light Rain 69 20.7 69 20.4 98 98 ESE 5 7 29.94 1014 10 16.09344 0.04 1.016
7:55 pm 19:55 Partly Cloudy with Rain 69 20.3 69 20.3 100 100 E 6 9 29.94 1014 10 16.09344 0.05 1.27
8:15 pm 20:15 Partly Cloudy with Light Rain 68 20.2 68 20.2 100 100 ESE 5 7 29.94 1014 10 16.09344 0 0
8:35 pm 20:35 Mostly Cloudy 68 20.2 68 20.2 100 100 ESE 3 6 29.94 1014 10 16.09344 0 0
8:55 pm 20:55 Mostly Cloudy 68 20.1 68 20.1 100 100 ESE 6 9 29.94 1014 10 16.09344 0 0
9:15 pm 21:15 Cloudy 69 20.3 69 20.3 100 100 SE 5 7 29.97 1015 10 16.09344 0 0
9:35 pm 21:35 Cloudy 69 20.5 69 20.5 100 100 ESE 6 9 29.97 1015 10 16.09344 0 0
9:55 pm 21:55 Cloudy 68 20.2 68 20.2 100 100 E 7 11 29.97 1015 10 16.09344 0 0
10:15 pm 22:15 Cloudy 68 20.1 68 20.1 100 100 ESE 5 7 29.97 1015 10 16.09344 0 0
10:35 pm 22:35 Cloudy with Light Rain 69 20.5 69 20.5 100 100 ESE 10 17 29.97 1015 10 16.09344 0 0
10:55 pm 22:55 Cloudy 69 20.6 69 20.6 100 100 SE 12 19 29.97 1015 10 16.09344 0 0
11:15 pm 23:15 Cloudy 69 20.5 69 20.5 100 100 SSE 14 22 29.97 1015 10 16.09344 0.01 0.254
11:35 pm 23:35 Cloudy 68 20.1 68 20.1 100 100 SSE 13 20 29.94 1014 10 16.09344 0.01 0.254
11:55 pm 23:55 Cloudy 68 20.1 68 20.1 100 100 SSE 9 15 29.94 1014 10 16.09344 0.01 0.254

Powered by AerisWeather